OKEAN-0
1 25860U 99039A 11300.00741695 .00001076 00000-0 17159-3 0 4498
2 25860 097.9025 262.9588 0000705 036.3613 323.7644 14.73898621660076
NOAA-16
1 26536U 00055A 11300.52641768 .00000179 00000-0 12166-3 0 4795
2 26536 099.1280 333.6790 0010810 024.9635 335.2082 14.12658463572044
NOAA-17
1 27453U 02032A 11300.52689686 .00000346 00000-0 16738-3 0 4630
2 27453 098.3659 334.0694 0012560 119.5027 240.7412 14.24334344485493
NOAA-18
1 28654U 05018A 11300.86877484 .00000326 00000-0 20413-3 0 9417
2 28654 099.0126 252.4429 0015118 090.7318 269.5612 14.11536019331645
NOAA-19
1 33591U 09005A 11300.75356753 .00000498 00000-0 29991-3 0 1324
2 33591 098.8381 238.7442 0013820 324.5377 035.4889 14.11227675140081
HUBBLE
1 20580U 90037B 11296.20596250 .00003035 00000-0 21550-3 0 08572
2 20580 028.4706 260.0600 0003211 045.9963 314.0958 15.01667302978916
ISS
1 25544U 98067A 11300.76416444 .00045603 00000-0 56230-3 0 3240
2 25544 051.6399 213.3840 0021869 353.4471 006.6750 15.59215888145678
CO-58
1 28895U 05043F 11300.18444894 .00001457 00000-0 31049-3 0 89
2 28895 097.9449 171.3263 0018051 163.5275 196.6523 14.60248301319502
FALCON
1 30776U 07006E 11299.33733500 .00008032 00000-0 55119-3 0 2015
2 30776 035.4297 269.2199 0001322 152.0089 208.0698 15.05379878254812
MAST
1 31126U 07012K 11300.11393460 .00001225 00000-0 28462-3 0 2937
2 31126 097.8875 319.8364 0094983 119.5430 241.5283 14.53855200240250
CAPE1
1 31130U 07012P 11299.60201993 .00001605 00000-0 37665-3 0 3053
2 31130 097.8926 315.9397 0102854 132.7372 228.2534 14.52531080239710
COMPASS
1 32787U 08021E 11300.69617527 .00005291 00000-0 65807-3 0 1286
2 32787 097.8350 001.9606 0016550 103.5664 256.7313 14.82852645189195
AAUSAT2
1 32788U 08021F 11300.37241092 .00005430 00000-0 67171-3 0 1193
2 32788 097.8371 001.9130 0016493 105.4767 254.8258 14.83067650189161
DO-64
1 32789U 08021G 11300.26484070 .00008687 00000-0 10519-2 0 1333
2 32789 097.8433 003.0857 0016042 103.1239 257.1849 14.83791745189160
CO-66
1 32791U 08021J 11300.20268867 .00004252 00000-0 53501-3 0 1225
2 32791 097.8356 001.3691 0017024 103.8279 256.4915 14.82466124189060
RS-30
1 32953U 08025A 11300.79308112 .00000010 00000-0 00000 0 0 2064
2 32953 082.4989 080.2724 0019724 097.3987 262.9339 12.43016334155566
TACSAT-3
1 35001U 09028A 11300.78670027 .00068615 00000-0 94555-3 0 7388
2 35001 040.4509 084.5399 0013526 113.6776 246.5462 15.56140989137681
PHARMSAT
1 35002U 09028B 11299.80268851 .00056248 00000-0 83742-3 0 6864
2 35002 040.4678 089.6063 0017050 121.5531 238.6959 15.54047739137541
HAWKSAT1
1 35003U 09028C 11278.76493853 .05638703 71200-5 11831-2 0 08211
2 35003 040.4370 161.0594 0006849 275.9761 084.3784 16.29831142134897
CP6
1 35004U 09028D 11247.64656856 .16152067 73217-5 10011-2 0 7842
2 35004 040.4403 342.9642 0002956 038.0069 322.2231 16.41039951130139
METEOR-M
1 35865U 09049A 11300.80098675 -.00000232 00000-0 -85335-4 0 8487
2 35865 098.6887 354.1003 0002833 025.2804 334.8482 14.21842687109430
RS-38
1 35869U 09049E 11300.64368225 .00000072 00000-0 52156-4 0 8298
2 35869 098.6857 353.9721 0004725 018.9149 341.2257 14.22028158109429
ARISSAT1
1 37772U 98067CK 11300.84435693 .00122504 00000-0 94502-3 0 2599
2 37772 051.6363 210.7447 0006024 037.5762 035.4526 15.71038535 13231
SRMSAT
1 37839U 11058B 11299.48462964 .00000619 00000-0 19019-3 0 158
2 37839 019.9601 340.0068 0019273 159.8666 200.2514 14.11976560 2031
JUGNU
1 37841U 11058D 11300.42378725 .00000264 00000-0 00000 0 0 139
2 37841 019.9725 334.6188 0011863 145.1953 214.9268 14.10079233 2158
